SCP
0 0 0 0 0 0 0 0 0 0 0 0 0 -0 -0 -0 -0 0 0 0 0 0 0 0 0 0 0 0 0 0 0 0 0 0 0 0 0 0 0 -0 0 0 -0 -0 -0
0 0 0 0 0 0 0 0 0 0 0 0 0 0 0 0 0 0 0 0 0 0 0 0 0 0 0 0 0 0 0 0 0 0 0 0 0 0 0 0 0 0 -0 0 0
0 0 0 0 0 0 0 0 0 0 0 0 0 0 0 0 0 0 0 0 0 0 0 0 0 0 0 0 0 0 0 0 0 0 0 0 0 0 0 0 0 0 0 0 0
0 0 0 0 0 0 0 0 0 0 0 0 0 0 0 0 0 0 0 0 0 0 0 0 0 0 0 0 0 0 0 0 0 0 0 0 0 0 0 0 0 0 0 0 0
0 0 0 0 0 0 0 0 0 0 0 0 0 0 0 0 0 0 0 0 0 0 0 0 0 0 0 0 0 0 0 0 0 0 0 0 0 0 0 0 0 0 0 0 0
0 0 0 0 0 0 0 0 0 0 0 0 0 0 0 0 0 0 0 0 0 0 0 0 0 0 0 0 0 0 0 0 0 0 0 0 0 0 0 0 0 0 0 0 0
0 0 0 0 0 0 0 0 0 0 0 0 0 0 0 0 0 0 0 0 0 0 0 0 0 0 0 0 0 0 0 0 0 0 0 0 0 0 0 0 0 0 0 0 0
0 0 0 0 0 0 0 0 0 0 0 0 0 0 0 0 0 0 0 0 0 0 0 0 0 0 0 0 0 0 0 0 0 0 0 0 0 0 0 0 0 0 0 0 0
0 0 0 0 0 0 0 0 0 0 0 0 0 0 0 0 0 0 0 0 0 0 0 0 0 0 0 0 0 0 0 0 0 0 0 0 0 0 0 0 0 0 0 0 0
0 0 0 0 0 0 0 0 0 0 0 0 0 0 0 0 0 0 0 0 0 0 0 0 0 0 0 0 0 0 0 0 0 0 0 0 0 0 0 0 0 0 0 0 0
0 0 0 0 0 0 0 0 0 0 0 0 0 0 0 0 0 0 0 0 0 0 0 0 0 0 0 0 0 0 0 0 0 0 0 0 0 0 0 0 0 0 0 0 0
0 0 0 0 0 0 0 0 0 0 0 0 0 0 0 0 0 0 0 0 0 0 0 0 0 0 0 0 0 0 0 0 0 0 0 0 0 0 0 0 0 0 0 0 0
0 0 0 0 0 0 0 0 0 0 0 0 0 0 0 0 0 0 0 0 0 0 0 0 0 0 0 0 0 0 0 0 0 0 0 0 0 0 0 0 0 0 0 0 0
0 0 0 0 0 0 0 0 0 0 0 0 0 0 0 0 0 0 0 0 0 0 0 0 0 0 0 0 0 0 0 0 0 0 0 0 0 0 0 0 0 0 0 0 0
0 0 0 0 0 0 0 0 0 0 0 0 0 0 0 0 0 0 0 0 0 0 0 0 0 0 0 0 0 0 0 0 0 0 0 0 0 0 0 0 0 0 0 0 0
0 0 0 0 0 0 0 0 0 0 0 0 0 0 0 0 0 0 0 0 0 0 0 0 0 0 0 0 0 0 0 0 0 0 0 0 0 0 0 0 0 0 0 0 0
0 0 0 0 0 0 0 0 0 0 0 0 0 0 0 0 0 0 0 0 0 0 0 0 0 0 0 0 0 0 0 0 0 0 0 0 0 0 0 0 0 0 0 0 0
0 0 0 0 0 0 0 0 0 0 0 0 0 0 0 0 0 0 0 0 0 0 0 0 0 0 0 0 0 0 0 0 0 0 0 0 0 0 0 0 0 0 0 0 0
0 0 0 0 0 0 0 0 0 0 0 0 0 0 0 0 0 0 0 0 0 0 0 0 0 0 0 0 0 0 0 0 0 0 0 0 0 0 0 0 0 0 0 0 0
0 0 0 0 0 0 0 0 0 0 0 0 0 0 0 0 0 0 0 0 0 0 0 0 0 0 0 0 0 0 0 0 0 0 0 0 0 0 0 0 0 0 0 0 0
0 0 0 0 0 0 0 0 0 0 0 0 0 0 0 0 0 0 0 0 0 0 0 0 0 0 0 0 0 0 0 0 0 0 0 0 0 0 0 0 0 0 0 0 0
0 0 0 0 0 0 0 0 0 0 0 0 0 0 0 0 0 0 0 0 0 0 0 0 0 0 0 0 0 0 0 0 0 0 0 0 0 0 0 0 0 0 0 0 0
0 0 0 0 0 0 0 0 0 0 0 0 0 0 0 0 0 0 0 0 0 0 0 0 0 0 0 0 0 0 0 0 0 0 0 0 0 0 0 0 0 0 0 0 0
0 0 0 0 0 0 0 0 0 0 0 0 0 0 0 0 0 0 0 0 0 0 0 0 0 0 0 0 0 0 0 0 0 0 0 0 0 0 0 0 0 0 0 0 0
0 0 0 0 0 0 0 0 0 0 0 0 0 0 0 0 0 0 0 0 0 0 0 0 0 0 0 0 0 0 0 0 0 0 0 0 0 0 0 0 0 0 0 0 0
0 0 0 0 0 0 0 0 0 0 0 0 0 0 0 0 0 0 0 0 0 0 0 0 0 0 0 0 0 0 0 0 0 0 0 0 0 0 0 0 0 0 0 0 0
0 0 0 0 0 0 0 0 0 0 0 0 0 0 0 0 0 0 0 0 0 0 0 0 0 0 0 0 0 0 0 0 0 0 0 0 0 0 0 0 0 0 0 0 0
Wind_Speed_500mb
6 5 4 4 4 4 4 5 5 4 5 6 9 10 10 12 14 13 10 7 9 12 10 8 5 3 4 7 7 5 5 10 15 15 11 7 10 5 4 3 2 2 3 8 11
10 8 8 8 7 8 7 8 8 8 9 10 11 12 12 13 13 11 9 10 12 13 13 12 9 6 5 5 4 2 4 9 6 8 12 11 4 4 6 3 8 5 3 5 6
16 14 12 11 12 12 12 12 12 11 12 13 13 13 14 14 11 4 3 8 12 15 15 13 10 5 6 4 4 1 1 9 8 8 8 7 4 7 5 6 6 7 8 5 4
22 20 18 16 17 17 16 16 16 15 14 14 15 15 14 11 5 3 4 9 15 17 18 13 6 3 3 3 1 4 4 6 8 12 8 7 5 7 14 5 17 7 13 7 1
29 26 24 22 21 21 21 20 19 19 18 16 17 16 15 8 10 11 8 10 16 16 13 8 4 6 5 7 6 5 6 6 8 12 11 11 17 10 14 21 21 14 11 6 7
35 32 29 27 27 25 25 24 23 21 21 20 20 18 15 12 14 15 15 18 19 19 15 10 5 8 10 5 5 3 5 9 12 11 12 14 9 12 13 28 23 20 17 14 9
41 38 35 32 31 31 29 27 25 24 23 23 22 20 21 23 17 17 17 19 21 21 18 14 10 10 14 8 3 1 8 14 14 9 10 16 9 18 14 26 21 17 12 7 3
48 44 40 37 35 34 32 30 28 26 25 23 21 18 14 21 23 28 24 21 22 21 18 15 14 13 6 15 5 3 4 7 6 7 4 16 8 13 28 30 20 13 8 6 6
53 50 46 41 39 37 34 31 29 28 26 22 19 14 12 19 27 29 25 23 22 20 18 19 19 8 10 8 6 4 11 14 7 3 3 15 3 14 27 22 17 15 13 8 6
57 54 51 45 42 40 34 31 29 29 28 23 23 9 26 15 20 25 28 25 20 26 21 14 6 7 7 15 16 11 11 10 12 4 6 12 24 9 26 25 23 13 8 5 4
61 57 52 48 44 41 34 25 21 16 31 23 13 10 6 23 21 23 30 32 24 16 15 7 14 24 35 31 11 2 9 21 5 3 7 21 24 21 29 25 26 21 17 15 10
62 61 53 48 45 42 36 21 18 7 14 29 43 37 18 25 16 28 36 22 17 16 16 9 26 26 5 15 15 10 18 29 12 6 8 19 28 33 24 27 31 27 24 21 17
65 61 55 48 41 42 41 36 24 11 11 17 42 43 39 40 20 40 48 23 12 17 30 23 4 13 16 13 19 22 28 23 17 1 10 11 31 37 14 12 12 20 27 27 27
64 61 53 41 33 42 46 35 22 5 11 12 16 20 34 34 13 32 52 18 10 27 19 16 7 12 16 16 24 28 24 20 16 7 17 5 13 13 14 16 19 27 33 33 34
62 61 47 52 26 40 41 31 31 11 16 8 10 13 27 23 29 19 43 18 16 16 14 11 17 20 22 19 21 11 10 18 12 18 11 18 12 13 7 20 24 32 39 38 35
56 57 46 54 47 37 28 41 41 9 26 10 10 13 18 7 7 14 18 9 10 9 4 9 1 9 8 6 14 24 13 10 6 3 15 31 26 14 14 14 14 31 36 39 42
76 81 66 68 69 46 41 56 12 27 8 15 12 16 15 12 9 12 21 21 18 15 25 7 19 8 9 11 5 11 20 7 8 10 13 3 18 18 14 4 5 32 41 41 41
75 78 78 83 72 58 63 16 28 32 41 9 12 16 21 19 8 12 20 24 27 8 8 18 14 30 25 27 18 33 23 10 13 11 3 5 14 9 4 8 10 15 41 43 45
72 78 91 90 83 74 62 31 44 36 34 26 14 13 20 13 12 16 25 20 28 34 22 17 12 5 7 6 20 15 21 3 7 3 5 12 10 12 8 11 12 22 40 49 52
90 93 99 92 90 94 31 57 34 17 24 25 41 27 35 28 26 30 31 17 15 40 14 12 10 4 5 7 1 10 21 9 7 10 13 11 11 15 16 26 19 25 41 47 51
96 48 82 94 95 59 28 53 48 25 24 33 40 27 21 24 33 23 26 11 25 24 40 12 9 7 10 23 35 12 13 7 5 8 8 9 9 9 24 26 29 33 41 50 57
98 24 59 104 43 30 39 57 56 60 33 27 12 39 29 29 30 33 38 25 44 38 31 20 5 12 23 2 5 22 23 25 14 13 9 4 12 4 4 13 23 26 35 43 54
77 67 66 116 35 38 55 55 56 41 59 35 27 20 21 29 20 36 27 22 41 37 35 24 10 11 7 7 5 17 18 30 23 4 21 14 7 2 2 9 21 25 34 45 52
20 8 35 95 105 56 51 62 57 77 39 57 32 36 20 26 23 16 26 14 44 38 37 48 18 31 37 16 21 24 29 32 36 20 25 39 17 17 19 21 26 32 37 44 58
18 5 12 12 37 57 55 38 58 49 67 46 25 56 50 37 39 48 25 11 11 19 21 26 31 36 44 24 19 19 39 43 50 54 31 35 40 30 31 30 40 45 37 47 61
12 2 9 3 15 52 54 58 67 60 29 55 52 47 39 57 61 45 45 34 25 17 15 10 28 31 31 27 25 19 35 50 53 48 46 30 36 15 42 33 27 34 44 55 64
27 30 9 3 3 3 37 57 62 47 55 75 65 49 48 70 66 55 39 44 26 34 36 25 22 15 31 18 10 19 46 41 35 35 39 38 34 13 16 28 37 40 55 61 53
Wind_Direction_500mb
184 185 212 219 232 227 237 261 274 286 298 312 318 322 326 321 319 309 284 228 207 202 199 189 188 168 113 78 76 110 171 167 172 177 152 152 181 187 235 260 47 147 183 228 259
222 237 241 250 258 266 265 272 279 291 300 307 312 315 321 322 318 297 266 227 201 189 189 181 172 146 93 74 32 260 220 163 165 159 159 155 183 180 208 202 168 153 259 283 274
245 249 256 257 259 262 267 272 278 287 296 302 307 312 317 323 316 272 260 197 182 176 169 163 145 121 96 88 23 63 128 144 177 172 158 159 215 174 230 235 172 175 201 172 145
251 257 258 260 261 263 265 270 277 281 286 293 300 306 309 314 286 211 156 152 158 157 156 154 140 90 103 138 116 191 143 163 153 186 169 199 178 221 218 223 188 207 186 193 228
246 251 258 259 260 263 267 270 274 281 286 291 297 303 307 283 247 224 208 187 177 172 177 183 186 147 184 156 160 209 170 200 201 209 228 221 228 246 221 204 201 212 192 224 271
245 248 251 255 257 258 263 269 274 278 282 287 290 294 290 259 249 233 224 213 209 205 209 212 202 169 122 167 228 139 217 253 251 235 212 212 240 188 198 208 201 178 191 207 227
245 247 248 250 252 255 258 264 268 272 275 281 285 288 280 262 249 230 226 218 214 212 215 215 198 168 146 147 152 18 289 292 232 214 217 184 226 225 194 167 159 174 188 203 245
243 246 249 248 248 251 257 262 266 268 273 277 281 282 260 257 243 233 226 217 210 210 209 199 177 159 124 133 79 237 252 253 126 165 159 196 244 157 166 164 168 174 200 234 260
242 245 246 246 247 248 253 261 264 266 271 274 274 254 254 245 234 228 213 213 203 193 185 178 166 126 138 192 214 213 259 229 285 192 144 220 278 135 176 187 182 192 210 227 255
240 242 245 244 245 247 250 256 261 268 267 268 249 246 237 221 216 210 201 189 172 169 144 157 132 181 179 198 236 206 222 231 241 143 223 241 251 172 190 201 210 209 200 177 193
240 238 239 242 242 245 248 253 266 262 233 214 219 202 180 201 194 192 187 177 161 163 181 151 206 215 216 218 259 210 235 259 213 123 238 246 264 255 206 221 220 213 196 177 189
233 238 234 236 239 240 239 217 219 224 290 244 239 231 223 192 182 190 180 174 173 188 138 161 230 234 145 195 218 228 251 259 273 218 235 264 261 264 226 230 232 224 193 177 170
234 232 233 230 231 233 233 227 229 249 267 253 232 231 220 212 213 193 183 183 182 169 194 211 161 171 172 171 202 227 233 243 261 201 218 270 265 252 224 193 189 184 182 177 174
232 231 227 221 219 226 233 221 207 193 264 234 211 218 202 194 213 196 185 177 182 208 179 235 164 155 184 210 205 241 223 232 232 244 262 232 281 238 211 203 196 190 187 180 174
231 227 220 211 210 212 229 200 183 156 270 131 151 176 166 177 142 179 180 194 182 169 181 200 178 189 214 224 186 264 145 203 213 234 265 218 256 248 177 232 207 193 184 177 172
231 230 216 210 208 219 206 171 155 193 239 165 132 160 152 157 123 116 169 158 141 130 276 273 71 194 205 96 193 136 101 82 84 201 252 233 221 199 214 222 177 186 187 179 174
228 233 224 211 206 201 176 153 178 224 131 179 174 173 166 151 144 165 172 180 173 183 223 197 220 175 160 116 96 182 165 183 217 209 251 65 214 257 242 176 115 180 182 184 182
229 219 212 208 208 190 176 186 218 224 208 109 120 139 182 154 185 157 159 192 218 200 146 198 235 191 187 214 181 190 196 206 213 204 222 107 230 242 320 126 137 151 181 182 184
220 216 212 206 202 194 181 200 221 209 189 149 133 166 196 205 172 167 197 210 197 193 205 195 247 195 196 148 167 180 212 169 110 81 263 208 230 238 183 195 171 164 178 187 189
216 215 212 206 203 194 202 214 223 193 159 177 205 189 186 185 176 193 181 192 201 194 200 199 235 218 143 140 140 207 145 172 214 218 231 207 239 224 205 207 183 185 192 193 194
220 209 208 209 205 201 208 224 217 210 171 181 212 200 207 181 196 195 200 167 201 192 194 155 237 140 147 208 187 173 190 205 216 222 239 260 228 214 205 186 190 197 197 196 196
210 216 206 201 196 207 211 214 218 212 220 228 222 210 192 181 192 208 203 205 189 151 177 196 161 195 207 120 303 234 215 184 200 191 237 307 244 175 131 169 188 188 197 201 203
219 212 203 190 201 204 222 222 222 211 213 219 213 202 195 193 213 205 203 204 170 169 169 171 198 228 221 214 182 218 204 216 235 57 210 211 225 134 202 239 202 193 200 204 203
224 213 202 193 204 206 206 215 217 216 220 212 229 229 209 211 224 206 209 188 193 199 195 167 175 208 225 217 161 205 205 202 202 220 218 227 221 196 205 214 204 204 208 205 204
241 248 191 205 202 206 208 209 216 212 216 201 218 217 214 229 225 233 199 155 196 223 188 188 226 217 235 243 203 208 196 195 208 221 214 233 225 196 195 202 206 211 199 197 203
184 236 258 205 225 208 203 211 212 212 177 212 222 208 212 217 212 220 221 214 210 176 191 220 228 217 241 229 216 228 211 202 211 219 233 242 246 187 204 202 198 200 198 203 207
193 198 240 246 194 271 216 221 216 209 217 218 217 222 215 224 229 246 227 222 209 186 188 185 203 183 232 197 162 250 214 198 206 214 213 219 231 136 178 197 205 198 204 209 209
Wind_Speed_850mb
6 5 4 4 4 4 4 5 5 4 5 6 9 10 10 12 14 13 10 7 9 12 10 8 5 3 4 7 7 5 5 10 15 15 11 7 10 5 4 3 2 2 3 8 11
10 8 8 8 7 8 7 8 8 8 9 10 11 12 12 13 13 11 9 10 12 13 13 12 9 6 5 5 4 2 4 9 6 8 12 11 4 4 6 3 8 5 3 5 6
16 14 12 11 12 12 12 12 12 11 12 13 13 13 14 14 11 4 3 8 12 15 15 13 10 5 6 4 4 1 1 9 8 8 8 7 4 7 5 6 6 7 8 5 4
22 20 18 16 17 17 16 16 16 15 14 14 15 15 14 11 5 3 4 9 15 17 18 13 6 3 3 3 1 4 4 6 8 12 8 7 5 7 14 5 17 7 13 7 1
29 26 24 22 21 21 21 20 19 19 18 16 17 16 15 8 10 11 8 10 16 16 13 8 4 6 5 7 6 5 6 6 8 12 11 11 17 10 14 21 21 14 11 6 7
35 32 29 27 27 25 25 24 23 21 21 20 20 18 15 12 14 15 15 18 19 19 15 10 5 8 10 5 5 3 5 9 12 11 12 14 9 12 13 28 23 20 17 14 9
41 38 35 32 31 31 29 27 25 24 23 23 22 20 21 23 17 17 17 19 21 21 18 14 10 10 14 8 3 1 8 14 14 9 10 16 9 18 14 26 21 17 12 7 3
48 44 40 37 35 34 32 30 28 26 25 23 21 18 14 21 23 28 24 21 22 21 18 15 14 13 6 15 5 3 4 7 6 7 4 16 8 13 28 30 20 13 8 6 6
53 50 46 41 39 37 34 31 29 28 26 22 19 14 12 19 27 29 25 23 22 20 18 19 19 8 10 8 6 4 11 14 7 3 3 15 3 14 27 22 17 15 13 8 6
57 54 51 45 42 40 34 31 29 29 28 23 23 9 26 15 20 25 28 25 20 26 21 14 6 7 7 15 16 11 11 10 12 4 6 12 24 9 26 25 23 13 8 5 4
61 57 52 48 44 41 34 25 21 16 31 23 13 10 6 23 21 23 30 32 24 16 15 7 14 24 35 31 11 2 9 21 5 3 7 21 24 21 29 25 26 21 17 15 10
62 61 53 48 45 42 36 21 18 7 14 29 43 37 18 25 16 28 36 22 17 16 16 9 26 26 5 15 15 10 18 29 12 6 8 19 28 33 24 27 31 27 24 21 17
65 61 55 48 41 42 41 36 24 11 11 17 42 43 39 40 20 40 48 23 12 17 30 23 4 13 16 13 19 22 28 23 17 1 10 11 31 37 14 12 12 20 27 27 27
64 61 53 41 33 42 46 35 22 5 11 12 16 20 34 34 13 32 52 18 10 27 19 16 7 12 16 16 24 28 24 20 16 7 17 5 13 13 14 16 19 27 33 33 34
62 61 47 52 26 40 41 31 31 11 16 8 10 13 27 23 29 19 43 18 16 16 14 11 17 20 22 19 21 11 10 18 12 18 11 18 12 13 7 20 24 32 39 38 35
56 57 46 54 47 37 28 41 41 9 26 10 10 13 18 7 7 14 18 9 10 9 4 9 1 9 8 6 14 24 13 10 6 3 15 31 26 14 14 14 14 31 36 39 42
76 81 66 68 69 46 41 56 12 27 8 15 12 16 15 12 9 12 21 21 18 15 25 7 19 8 9 11 5 11 20 7 8 10 13 3 18 18 14 4 5 32 41 41 41
75 78 78 83 72 58 63 16 28 32 41 9 12 16 21 19 8 12 20 24 27 8 8 18 14 30 25 27 18 33 23 10 13 11 3 5 14 9 4 8 10 15 41 43 45
72 78 91 90 83 74 62 31 44 36 34 26 14 13 20 13 12 16 25 20 28 34 22 17 12 5 7 6 20 15 21 3 7 3 5 12 10 12 8 11 12 22 40 49 52
90 93 99 92 90 94 31 57 34 17 24 25 41 27 35 28 26 30 31 17 15 40 14 12 10 4 5 7 1 10 21 9 7 10 13 11 11 15 16 26 19 25 41 47 51
96 48 82 94 95 59 28 53 48 25 24 33 40 27 21 24 33 23 26 11 25 24 40 12 9 7 10 23 35 12 13 7 5 8 8 9 9 9 24 26 29 33 41 50 57
98 24 59 104 43 30 39 57 56 60 33 27 12 39 29 29 30 33 38 25 44 38 31 20 5 12 23 2 5 22 23 25 14 13 9 4 12 4 4 13 23 26 35 43 54
77 67 66 116 35 38 55 55 56 41 59 35 27 20 21 29 20 36 27 22 41 37 35 24 10 11 7 7 5 17 18 30 23 4 21 14 7 2 2 9 21 25 34 45 52
20 8 35 95 105 56 51 62 57 77 39 57 32 36 20 26 23 16 26 14 44 38 37 48 18 31 37 16 21 24 29 32 36 20 25 39 17 17 19 21 26 32 37 44 58
18 5 12 12 37 57 55 38 58 49 67 46 25 56 50 37 39 48 25 11 11 19 21 26 31 36 44 24 19 19 39 43 50 54 31 35 40 30 31 30 40 45 37 47 61
12 2 9 3 15 52 54 58 67 60 29 55 52 47 39 57 61 45 45 34 25 17 15 10 28 31 31 27 25 19 35 50 53 48 46 30 36 15 42 33 27 34 44 55 64
27 30 9 3 3 3 37 57 62 47 55 75 65 49 48 70 66 55 39 44 26 34 36 25 22 15 31 18 10 19 46 41 35 35 39 38 34 13 16 28 37 40 55 61 53
Wind_Direction_850mb
184 185 212 219 232 227 237 261 274 286 298 312 318 322 326 321 319 309 284 228 207 202 199 189 188 168 113 78 76 110 171 167 172 177 152 152 181 187 235 260 47 147 183 228 259
222 237 241 250 258 266 265 272 279 291 300 307 312 315 321 322 318 297 266 227 201 189 189 181 172 146 93 74 32 260 220 163 165 159 159 155 183 180 208 202 168 153 259 283 274
245 249 256 257 259 262 267 272 278 287 296 302 307 312 317 323 316 272 260 197 182 176 169 163 145 121 96 88 23 63 128 144 177 172 158 159 215 174 230 235 172 175 201 172 145
251 257 258 260 261 263 265 270 277 281 286 293 300 306 309 314 286 211 156 152 158 157 156 154 140 90 103 138 116 191 143 163 153 186 169 199 178 221 218 223 188 207 186 193 228
246 251 258 259 260 263 267 270 274 281 286 291 297 303 307 283 247 224 208 187 177 172 177 183 186 147 184 156 160 209 170 200 201 209 228 221 228 246 221 204 201 212 192 224 271
245 248 251 255 257 258 263 269 274 278 282 287 290 294 290 259 249 233 224 213 209 205 209 212 202 169 122 167 228 139 217 253 251 235 212 212 240 188 198 208 201 178 191 207 227
245 247 248 250 252 255 258 264 268 272 275 281 285 288 280 262 249 230 226 218 214 212 215 215 198 168 146 147 152 18 289 292 232 214 217 184 226 225 194 167 159 174 188 203 245
243 246 249 248 248 251 257 262 266 268 273 277 281 282 260 257 243 233 226 217 210 210 209 199 177 159 124 133 79 237 252 253 126 165 159 196 244 157 166 164 168 174 200 234 260
242 245 246 246 247 248 253 261 264 266 271 274 274 254 254 245 234 228 213 213 203 193 185 178 166 126 138 192 214 213 259 229 285 192 144 220 278 135 176 187 182 192 210 227 255
240 242 245 244 245 247 250 256 261 268 267 268 249 246 237 221 216 210 201 189 172 169 144 157 132 181 179 198 236 206 222 231 241 143 223 241 251 172 190 201 210 209 200 177 193
240 238 239 242 242 245 248 253 266 262 233 214 219 202 180 201 194 192 187 177 161 163 181 151 206 215 216 218 259 210 235 259 213 123 238 246 264 255 206 221 220 213 196 177 189
233 238 234 236 239 240 239 217 219 224 290 244 239 231 223 192 182 190 180 174 173 188 138 161 230 234 145 195 218 228 251 259 273 218 235 264 261 264 226 230 232 224 193 177 170
234 232 233 230 231 233 233 227 229 249 267 253 232 231 220 212 213 193 183 183 182 169 194 211 161 171 172 171 202 227 233 243 261 201 218 270 265 252 224 193 189 184 182 177 174
232 231 227 221 219 226 233 221 207 193 264 234 211 218 202 194 213 196 185 177 182 208 179 235 164 155 184 210 205 241 223 232 232 244 262 232 281 238 211 203 196 190 187 180 174
231 227 220 211 210 212 229 200 183 156 270 131 151 176 166 177 142 179 180 194 182 169 181 200 178 189 214 224 186 264 145 203 213 234 265 218 256 248 177 232 207 193 184 177 172
231 230 216 210 208 219 206 171 155 193 239 165 132 160 152 157 123 116 169 158 141 130 276 273 71 194 205 96 193 136 101 82 84 201 252 233 221 199 214 222 177 186 187 179 174
228 233 224 211 206 201 176 153 178 224 131 179 174 173 166 151 144 165 172 180 173 183 223 197 220 175 160 116 96 182 165 183 217 209 251 65 214 257 242 176 115 180 182 184 182
229 219 212 208 208 190 176 186 218 224 208 109 120 139 182 154 185 157 159 192 218 200 146 198 235 191 187 214 181 190 196 206 213 204 222 107 230 242 320 126 137 151 181 182 184
220 216 212 206 202 194 181 200 221 209 189 149 133 166 196 205 172 167 197 210 197 193 205 195 247 195 196 148 167 180 212 169 110 81 263 208 230 238 183 195 171 164 178 187 189
216 215 212 206 203 194 202 214 223 193 159 177 205 189 186 185 176 193 181 192 201 194 200 199 235 218 143 140 140 207 145 172 214 218 231 207 239 224 205 207 183 185 192 193 194
220 209 208 209 205 201 208 224 217 210 171 181 212 200 207 181 196 195 200 167 201 192 194 155 237 140 147 208 187 173 190 205 216 222 239 260 228 214 205 186 190 197 197 196 196
210 216 206 201 196 207 211 214 218 212 220 228 222 210 192 181 192 208 203 205 189 151 177 196 161 195 207 120 303 234 215 184 200 191 237 307 244 175 131 169 188 188 197 201 203
219 212 203 190 201 204 222 222 222 211 213 219 213 202 195 193 213 205 203 204 170 169 169 171 198 228 221 214 182 218 204 216 235 57 210 211 225 134 202 239 202 193 200 204 203
224 213 202 193 204 206 206 215 217 216 220 212 229 229 209 211 224 206 209 188 193 199 195 167 175 208 225 217 161 205 205 202 202 220 218 227 221 196 205 214 204 204 208 205 204
241 248 191 205 202 206 208 209 216 212 216 201 218 217 214 229 225 233 199 155 196 223 188 188 226 217 235 243 203 208 196 195 208 221 214 233 225 196 195 202 206 211 199 197 203
184 236 258 205 225 208 203 211 212 212 177 212 222 208 212 217 212 220 221 214 210 176 191 220 228 217 241 229 216 228 211 202 211 219 233 242 246 187 204 202 198 200 198 203 207
193 198 240 246 194 271 216 221 216 209 217 218 217 222 215 224 229 246 227 222 209 186 188 185 203 183 232 197 162 250 214 198 206 214 213 219 231 136 178 197 205 198 204 209 209